Torna al catalogo

COSMOS 2251 DEB

LostVLEO
NORAD 39111·DEBRIS·🇷🇺 Russia

Lanciato Jun 16, 1993 da Plesetsk Cosmodrome

Loading…

Prossimi Passaggi (prossime 24 ore)

TLE

ObsoletoSource: Space-Track

Epoca: Dec 1, 2025, 22:58 UTC

1 39111U 93036BUA 25335.95758740  .00098096  00000-0  56424-2 0  9994
2 39111  74.0059  63.5328 0010911  39.1207 321.0773 15.11912111 89826

Traccia COSMOS 2251 DEB in tempo reale con AllMySat

Download on the App Store